Terminal Aerodrome Forecast
Issued by NWS

Home | Current Version | Previous Version | Text Only | Print | Product List | Glossary On
Versions: 1 2 3 4 5 6 7 8 9 10 11 12 13 14 15 16 17 18 19 20 21 22 23 24 25 26 27 28 29 30 31 32 33 34 35 36 37 38 39 40 41 42 43 44 45 46 47 48 49 50
000
FTUS42 KMFL 251746 CCA
TAFMIA
TAF COR
KMIA 251746Z 2518/2618 22015G22KT P6SM VCTS BKN025CB BKN050 OVC090
     FM252100 25012G20KT P6SM VCSH SCT040 OVC050
     FM260000 29005KT P6SM FEW030 SCT060 BKN120
     FM261200 34007KT P6SM SCT035 BKN050=

USA.gov is the U.S. government's official web portal to all federal, state and local government web resources and services.